Time,TemperatureF,DewpointF,PressureIn,WindDirection,WindDirectionDegrees,WindSpeedMPH,WindSpeedGustMPH,Humidity,HourlyPrecipIn,Conditions,Clouds,dailyrainin,SoftwareType,DateUTC
2013-09-14 00:00:00,79.4,75.0,29.89,East,97,0.0,0.0,87,0.00,,,0.00,weatherlink.com 1.10,2013-09-14 04:00:00,
2013-09-14 00:15:00,79.5,75.0,29.89,East,97,0.0,1.0,87,0.00,,,0.00,weatherlink.com 1.10,2013-09-14 04:15:00,
2013-09-14 00:30:00,79.6,76.0,29.89,East,97,0.0,0.0,88,0.00,,,0.00,weatherlink.com 1.10,2013-09-14 04:30:00,
2013-09-14 00:45:00,79.1,76.0,29.89,East,97,0.0,0.0,89,0.00,,,0.00,weatherlink.com 1.10,2013-09-14 04:45:00,
2013-09-14 01:00:00,78.7,76.0,29.89,East,97,0.0,0.0,90,0.00,,,0.00,weatherlink.com 1.10,2013-09-14 05:00:00,
2013-09-14 01:15:00,78.4,76.0,29.89,East,97,0.0,0.0,91,0.00,,,0.00,weatherlink.com 1.10,2013-09-14 05:15:00,
2013-09-14 01:30:00,78.0,75.0,29.89,East,97,0.0,0.0,91,0.00,,,0.00,weatherlink.com 1.10,2013-09-14 05:30:00,
2013-09-14 01:46:00,77.8,75.0,29.88,East,97,0.0,0.0,92,0.00,,,0.00,weatherlink.com 1.10,2013-09-14 05:46:00,
2013-09-14 02:01:00,77.6,75.0,29.88,East,97,0.0,0.0,92,0.00,,,0.00,weatherlink.com 1.10,2013-09-14 06:01:00,
2013-09-14 02:16:00,77.4,75.0,29.88,East,97,0.0,0.0,93,0.00,,,0.00,weatherlink.com 1.10,2013-09-14 06:16:00,
2013-09-14 02:31:00,77.1,75.0,29.88,East,97,0.0,0.0,93,0.00,,,0.00,weatherlink.com 1.10,2013-09-14 06:31:00,
2013-09-14 02:46:00,76.9,75.0,29.87,East,97,0.0,0.0,93,0.00,,,0.00,weatherlink.com 1.10,2013-09-14 06:46:00,
2013-09-14 03:01:00,77.0,75.0,29.87,East,97,0.0,0.0,94,0.00,,,0.00,weatherlink.com 1.10,2013-09-14 07:01:00,
2013-09-14 03:16:00,76.9,75.0,29.86,East,97,0.0,0.0,94,0.00,,,0.00,weatherlink.com 1.10,2013-09-14 07:16:00,
2013-09-14 03:32:00,76.9,75.0,29.86,East,97,0.0,1.0,94,0.00,,,0.00,weatherlink.com 1.10,2013-09-14 07:32:00,
2013-09-14 03:46:00,77.1,75.0,29.86,East,97,0.0,0.0,94,0.00,,,0.00,weatherlink.com 1.10,2013-09-14 07:46:00,
2013-09-14 04:01:00,77.0,75.0,29.86,East,97,0.0,0.0,94,0.00,,,0.00,weatherlink.com 1.10,2013-09-14 08:01:00,
2013-09-14 04:16:00,76.7,75.0,29.86,East,97,0.0,0.0,95,0.00,,,0.00,weatherlink.com 1.10,2013-09-14 08:16:00,
2013-09-14 04:31:00,76.6,75.0,29.86,East,97,0.0,0.0,95,0.00,,,0.00,weatherlink.com 1.10,2013-09-14 08:31:00,
2013-09-14 04:46:00,76.5,75.0,29.86,East,97,0.0,0.0,96,0.00,,,0.00,weatherlink.com 1.10,2013-09-14 08:46:00,
2013-09-14 05:01:00,76.4,75.0,29.87,East,97,0.0,0.0,96,0.00,,,0.00,weatherlink.com 1.10,2013-09-14 09:01:00,
2013-09-14 05:16:00,76.4,75.0,29.87,East,97,0.0,0.0,96,0.00,,,0.00,weatherlink.com 1.10,2013-09-14 09:16:00,
2013-09-14 05:31:00,76.5,75.0,29.87,East,97,0.0,0.0,96,0.00,,,0.00,weatherlink.com 1.10,2013-09-14 09:31:00,
2013-09-14 05:46:00,76.4,75.0,29.87,East,97,0.0,0.0,96,0.00,,,0.00,weatherlink.com 1.10,2013-09-14 09:46:00,
2013-09-14 06:01:00,76.4,75.0,29.88,East,97,0.0,0.0,96,0.00,,,0.00,weatherlink.com 1.10,2013-09-14 10:01:00,
2013-09-14 06:16:00,76.4,76.0,29.88,East,97,0.0,0.0,97,0.00,,,0.00,weatherlink.com 1.10,2013-09-14 10:16:00,
2013-09-14 06:31:00,76.3,75.0,29.89,East,97,0.0,0.0,97,0.00,,,0.00,weatherlink.com 1.10,2013-09-14 10:31:00,
2013-09-14 06:46:00,76.2,75.0,29.89,East,97,0.0,0.0,97,0.00,,,0.00,weatherlink.com 1.10,2013-09-14 10:46:00,
2013-09-14 07:01:00,76.2,75.0,29.90,East,97,0.0,1.0,97,0.00,,,0.00,weatherlink.com 1.10,2013-09-14 11:01:00,
2013-09-14 07:16:00,76.2,75.0,29.90,East,97,0.0,1.0,97,0.00,,,0.00,weatherlink.com 1.10,2013-09-14 11:16:00,
2013-09-14 07:31:00,76.2,75.0,29.90,East,97,0.0,0.0,97,0.00,,,0.00,weatherlink.com 1.10,2013-09-14 11:31:00,
2013-09-14 07:46:00,76.5,76.0,29.91,East,97,0.0,1.0,97,0.00,,,0.00,weatherlink.com 1.10,2013-09-14 11:46:00,
2013-09-14 08:01:00,77.2,76.0,29.92,East,97,0.0,1.0,97,0.00,,,0.00,weatherlink.com 1.10,2013-09-14 12:01:00,
2013-09-14 08:16:00,78.3,77.0,29.92,East,97,0.0,1.0,97,0.00,,,0.00,weatherlink.com 1.10,2013-09-14 12:16:00,
2013-09-14 08:31:00,79.8,78.0,29.93,East,97,0.0,3.0,94,0.00,,,0.00,weatherlink.com 1.10,2013-09-14 12:31:00,
2013-09-14 08:46:00,80.9,78.0,29.93,SSE,162,2.0,4.0,91,0.00,,,0.00,weatherlink.com 1.10,2013-09-14 12:46:00,
2013-09-14 09:01:00,81.9,78.0,29.93,South,182,0.0,4.0,87,0.00,,,0.00,weatherlink.com 1.10,2013-09-14 13:01:00,
2013-09-14 09:16:00,82.4,78.0,29.94,SSW,198,0.0,5.0,85,0.00,,,0.00,weatherlink.com 1.10,2013-09-14 13:16:00,
2013-09-14 09:31:00,83.0,77.0,29.95,SE,142,3.0,6.0,82,0.00,,,0.00,weatherlink.com 1.10,2013-09-14 13:31:00,
2013-09-14 09:46:00,83.6,77.0,29.95,South,181,3.0,6.0,81,0.00,,,0.00,weatherlink.com 1.10,2013-09-14 13:46:00,
2013-09-14 10:01:00,83.9,76.0,29.95,South,190,0.0,4.0,76,0.00,,,0.00,weatherlink.com 1.10,2013-09-14 14:01:00,
2013-09-14 10:16:00,84.6,76.0,29.95,SSE,147,3.0,5.0,75,0.00,,,0.00,weatherlink.com 1.10,2013-09-14 14:16:00,
2013-09-14 10:31:00,85.9,76.0,29.95,SSW,200,3.0,3.0,73,0.00,,,0.00,weatherlink.com 1.10,2013-09-14 14:31:00,
2013-09-14 10:46:00,85.5,75.0,29.95,WSW,244,0.0,3.0,71,0.00,,,0.00,weatherlink.com 1.10,2013-09-14 14:46:00,
2013-09-14 11:01:00,86.4,76.0,29.95,ESE,103,1.0,5.0,70,0.00,,,0.00,weatherlink.com 1.10,2013-09-14 15:01:00,
2013-09-14 11:16:00,87.8,76.0,29.96,East,90,0.0,3.0,68,0.00,,,0.00,weatherlink.com 1.10,2013-09-14 15:16:00,
2013-09-14 11:32:00,88.3,76.0,29.96,South,178,0.0,5.0,66,0.00,,,0.00,weatherlink.com 1.10,2013-09-14 15:32:00,
2013-09-14 11:47:00,88.9,76.0,29.96,South,180,0.0,3.0,66,0.00,,,0.00,weatherlink.com 1.10,2013-09-14 15:47:00,
2013-09-14 12:02:00,89.5,76.0,29.96,ESE,118,0.0,3.0,65,0.00,,,0.00,weatherlink.com 1.10,2013-09-14 16:02:00,
2013-09-14 12:17:00,90.3,76.0,29.95,East,84,0.0,5.0,62,0.00,,,0.00,weatherlink.com 1.10,2013-09-14 16:17:00,
2013-09-14 12:32:00,92.4,75.0,29.95,ENE,69,0.0,3.0,57,0.00,,,0.00,weatherlink.com 1.10,2013-09-14 16:32:00,
2013-09-14 12:47:00,90.7,74.0,29.95,ENE,71,1.0,2.0,59,0.00,,,0.00,weatherlink.com 1.10,2013-09-14 16:47:00,
2013-09-14 13:02:00,91.8,75.0,29.95,SE,124,2.0,6.0,59,0.00,,,0.00,weatherlink.com 1.10,2013-09-14 17:02:00,
2013-09-14 13:17:00,92.7,75.0,29.94,East,100,5.0,11.0,57,0.00,,,0.00,weatherlink.com 1.10,2013-09-14 17:17:00,
2013-09-14 13:32:00,92.6,75.0,29.95,ENE,64,2.0,11.0,57,0.00,,,0.00,weatherlink.com 1.10,2013-09-14 17:32:00,
2013-09-14 13:47:00,93.1,75.0,29.94,ESE,105,3.0,8.0,55,0.00,,,0.00,weatherlink.com 1.10,2013-09-14 17:47:00,
2013-09-14 14:02:00,92.9,74.0,29.93,ENE,68,3.0,11.0,54,0.00,,,0.00,weatherlink.com 1.10,2013-09-14 18:02:00,
2013-09-14 14:17:00,93.1,75.0,29.93,ENE,66,4.0,7.0,55,0.00,,,0.00,weatherlink.com 1.10,2013-09-14 18:17:00,
2013-09-14 14:32:00,92.9,75.0,29.93,East,79,3.0,10.0,56,0.00,,,0.00,weatherlink.com 1.10,2013-09-14 18:32:00,
2013-09-14 14:47:00,92.2,75.0,29.92,East,94,7.0,15.0,57,0.00,,,0.00,weatherlink.com 1.10,2013-09-14 18:47:00,
2013-09-14 15:02:00,91.8,75.0,29.92,ESE,107,2.0,11.0,58,0.00,,,0.00,weatherlink.com 1.10,2013-09-14 19:02:00,
2013-09-14 15:17:00,91.8,74.0,29.92,NE,42,4.0,12.0,56,0.00,,,0.00,weatherlink.com 1.10,2013-09-14 19:17:00,
2013-09-14 15:32:00,91.8,76.0,29.92,ENE,74,3.0,13.0,60,0.00,,,0.00,weatherlink.com 1.10,2013-09-14 19:32:00,
2013-09-14 15:47:00,91.6,76.0,29.91,ESE,107,3.0,10.0,60,0.00,,,0.00,weatherlink.com 1.10,2013-09-14 19:47:00,
2013-09-14 16:02:00,91.5,77.0,29.92,ENE,76,4.0,11.0,63,0.00,,,0.00,weatherlink.com 1.10,2013-09-14 20:02:00,
2013-09-14 16:17:00,90.7,75.0,29.92,ESE,103,3.0,13.0,60,0.00,,,0.00,weatherlink.com 1.10,2013-09-14 20:17:00,
2013-09-14 16:32:00,91.0,76.0,29.93,ENE,71,4.0,11.0,61,0.00,,,0.00,weatherlink.com 1.10,2013-09-14 20:32:00,
2013-09-14 16:47:00,90.7,76.0,29.93,East,92,8.0,11.0,62,0.00,,,0.00,weatherlink.com 1.10,2013-09-14 20:47:00,
2013-09-14 17:02:00,90.4,77.0,29.92,ENE,57,5.0,11.0,64,0.00,,,0.00,weatherlink.com 1.10,2013-09-14 21:02:00,
2013-09-14 17:17:00,89.8,76.0,29.93,SE,132,1.0,10.0,63,0.00,,,0.00,weatherlink.com 1.10,2013-09-14 21:17:00,
2013-09-14 17:32:00,89.7,75.0,29.93,ENE,75,3.0,10.0,63,0.00,,,0.00,weatherlink.com 1.10,2013-09-14 21:32:00,
2013-09-14 17:47:00,89.3,76.0,29.95,ENE,78,1.0,13.0,65,0.00,,,0.00,weatherlink.com 1.10,2013-09-14 21:47:00,
2013-09-14 18:02:00,89.5,77.0,29.95,ESE,117,5.0,9.0,67,0.00,,,0.00,weatherlink.com 1.10,2013-09-14 22:02:00,
2013-09-14 18:17:00,88.6,76.0,29.94,ENE,64,2.0,13.0,67,0.00,,,0.00,weatherlink.com 1.10,2013-09-14 22:17:00,
2013-09-14 18:32:00,87.5,77.0,29.94,East,89,3.0,8.0,70,0.00,,,0.00,weatherlink.com 1.10,2013-09-14 22:32:00,
2013-09-14 18:47:00,86.6,76.0,29.93,ESE,111,5.0,10.0,70,0.00,,,0.00,weatherlink.com 1.10,2013-09-14 22:47:00,
2013-09-14 19:02:00,85.7,75.0,29.93,ENE,78,4.0,8.0,71,0.00,,,0.00,weatherlink.com 1.10,2013-09-14 23:02:00,
2013-09-14 19:17:00,85.2,75.0,29.93,ENE,74,5.0,7.0,72,0.00,,,0.00,weatherlink.com 1.10,2013-09-14 23:17:00,
2013-09-14 19:33:00,84.5,75.0,29.94,East,83,3.0,9.0,74,0.00,,,0.00,weatherlink.com 1.10,2013-09-14 23:33:00,
2013-09-14 19:48:00,84.2,75.0,29.94,NE,44,1.0,6.0,74,0.00,,,0.00,weatherlink.com 1.10,2013-09-14 23:48:00,
2013-09-14 20:03:00,84.0,76.0,29.95,ENE,68,2.0,8.0,76,0.00,,,0.00,weatherlink.com 1.10,2013-09-15 00:03:00,
2013-09-14 20:18:00,83.9,76.0,29.95,ENE,57,9.0,10.0,76,0.00,,,0.00,weatherlink.com 1.10,2013-09-15 00:18:00,
2013-09-14 20:33:00,83.7,76.0,29.95,ENE,74,5.0,9.0,77,0.00,,,0.00,weatherlink.com 1.10,2013-09-15 00:33:00,
2013-09-14 20:48:00,83.6,76.0,29.96,NE,55,5.0,8.0,77,0.00,,,0.00,weatherlink.com 1.10,2013-09-15 00:48:00,
2013-09-14 21:03:00,83.5,76.0,29.97,ESE,108,3.0,7.0,79,0.00,,,0.00,weatherlink.com 1.10,2013-09-15 01:03:00,
2013-09-14 21:18:00,83.4,77.0,29.97,ENE,74,7.0,10.0,80,0.00,,,0.00,weatherlink.com 1.10,2013-09-15 01:18:00,
2013-09-14 21:33:00,83.3,76.0,29.98,East,82,6.0,8.0,79,0.00,,,0.00,weatherlink.com 1.10,2013-09-15 01:33:00,
2013-09-14 21:48:00,83.2,76.0,29.99,ENE,63,3.0,5.0,79,0.00,,,0.00,weatherlink.com 1.10,2013-09-15 01:48:00,
2013-09-14 22:03:00,83.3,76.0,30.00,East,83,5.0,8.0,79,0.00,,,0.00,weatherlink.com 1.10,2013-09-15 02:03:00,
2013-09-14 22:18:00,83.3,77.0,30.01,ENE,63,3.0,7.0,80,0.00,,,0.00,weatherlink.com 1.10,2013-09-15 02:18:00,
2013-09-14 22:33:00,83.3,77.0,30.01,ENE,64,2.0,4.0,81,0.00,,,0.00,weatherlink.com 1.10,2013-09-15 02:33:00,
2013-09-14 22:48:00,83.2,77.0,30.00,ENE,63,0.0,6.0,81,0.00,,,0.00,weatherlink.com 1.10,2013-09-15 02:48:00,
2013-09-14 23:03:00,83.2,77.0,30.00,ENE,67,0.0,5.0,81,0.00,,,0.00,weatherlink.com 1.10,2013-09-15 03:03:00,
2013-09-14 23:18:00,83.0,77.0,30.00,ENE,67,4.0,5.0,81,0.00,,,0.00,weatherlink.com 1.10,2013-09-15 03:18:00,
2013-09-14 23:33:00,82.9,77.0,29.99,ENE,67,0.0,4.0,81,0.00,,,0.00,weatherlink.com 1.10,2013-09-15 03:33:00,
2013-09-14 23:48:00,82.6,77.0,30.00,ENE,67,0.0,4.0,82,0.00,,,0.00,weatherlink.com 1.10,2013-09-15 03:48:00,